Probability
0 0 0 0 0 0 0 0 0 0 0 0 0 0 0 0 0 0 0 0 0 0 0 0 0 0 0 0 0 0 0 0 0 1 2 2 2 1 0 0 0 0 0 0
0 0 0 0 0 0 0 0 0 0 0 0 0 0 0 0 0 0 0 0 0 0 0 0 0 0 0 0 0 0 0 0 0 0 1 1 2 1 0 0 0 0 0 0
0 0 0 0 0 0 0 0 0 0 0 0 0 0 0 0 0 0 0 0 0 0 0 0 0 0 0 0 0 0 0 0 0 0 0 1 1 1 0 0 0 0 0 0
0 0 0 0 0 0 0 0 0 0 0 0 0 0 0 0 0 0 0 0 0 0 0 0 0 0 0 0 0 0 0 0 0 0 0 0 0 0 0 0 0 0 0 0
0 0 0 0 0 0 0 0 0 0 0 0 0 0 0 0 0 0 0 0 0 0 0 0 0 0 0 0 0 0 0 0 0 0 0 0 0 0 0 0 0 0 0 0
0 0 0 0 0 0 0 0 0 0 0 0 0 0 0 0 0 0 0 0 0 0 0 0 0 0 0 0 0 0 0 0 0 0 0 0 0 0 0 0 0 0 0 0
0 0 0 0 0 0 0 0 0 0 0 0 0 0 0 0 0 0 0 0 0 0 0 0 0 0 0 0 0 0 0 0 0 0 0 0 0 0 0 0 0 0 0 0
0 0 0 0 0 0 0 0 0 0 0 0 0 0 0 0 0 0 0 0 0 0 0 0 0 0 0 0 0 0 0 0 0 0 0 0 0 0 0 0 0 0 0 0
0 0 0 0 0 0 0 0 0 0 0 0 0 0 0 0 0 0 0 0 0 0 0 0 0 0 0 0 0 0 0 0 0 0 0 0 0 0 0 0 0 0 0 0
0 0 0 0 0 0 0 0 0 0 0 0 0 0 0 0 0 0 0 0 0 0 0 0 0 0 0 0 0 0 0 0 0 0 0 0 0 0 0 0 0 0 0 0
0 0 0 0 0 0 0 0 0 0 0 0 0 0 0 0 0 0 0 0 0 0 0 0 0 0 0 0 0 0 0 0 0 0 0 0 0 0 0 0 0 0 0 0
0 0 0 0 0 0 0 0 0 0 0 0 0 0 0 0 0 0 0 0 0 0 0 0 0 0 0 0 0 0 0 0 0 0 0 0 0 0 0 0 0 0 0 0
0 0 0 0 0 0 0 0 0 0 0 0 0 0 0 0 0 0 0 0 0 0 0 0 0 0 0 0 0 0 0 0 0 0 0 0 0 0 0 0 0 0 0 0
0 0 0 0 0 0 0 0 0 0 0 0 0 0 0 0 0 0 0 0 0 0 0 0 0 0 0 0 0 0 0 0 0 0 0 0 0 0 0 0 0 0 0 0
0 0 0 0 0 0 0 0 0 0 0 0 0 0 0 0 0 0 0 0 0 0 0 0 0 0 0 0 0 0 0 0 0 0 0 0 0 0 0 0 0 0 0 0
0 0 0 0 0 0 0 0 0 0 0 0 0 0 0 0 0 0 0 0 0 0 0 0 0 0 0 0 0 0 0 0 0 0 0 0 0 0 0 0 0 0 0 0
0 0 0 0 0 0 0 0 0 0 0 0 0 0 0 0 0 0 0 0 0 0 0 0 0 0 0 0 0 0 0 0 0 0 0 0 0 0 0 0 0 0 0 0
0 0 0 0 0 0 0 0 0 0 0 0 0 0 0 0 0 0 0 0 0 0 0 0 0 0 0 0 0 0 0 0 0 0 0 0 0 0 0 0 0 0 0 0
0 0 0 0 0 0 0 0 0 0 0 0 0 0 0 0 0 0 0 0 0 0 0 0 0 0 0 0 0 0 0 0 0 0 0 0 0 0 0 0 0 0 0 0
0 0 0 0 0 0 0 0 0 0 0 0 0 0 0 0 0 0 0 0 0 0 0 0 0 0 0 0 0 0 0 0 0 0 0 0 0 0 0 0 0 0 0 0
0 0 0 0 0 0 0 0 0 0 0 0 0 0 0 0 0 0 0 0 0 0 0 0 0 0 0 0 0 0 0 0 0 0 0 0 0 0 0 0 0 0 0 0
0 0 0 0 0 0 0 0 0 0 0 0 0 0 0 0 0 0 0 0 0 0 0 0 0 0 0 0 0 0 0 0 0 0 0 0 0 0 0 0 0 0 0 0
0 0 0 0 0 0 0 0 0 0 0 0 0 0 0 0 0 0 0 0 0 0 0 0 0 0 0 0 0 0 0 0 0 0 0 0 0 0 0 0 0 0 0 0
0 0 0 0 0 0 0 0 0 0 0 0 0 0 0 0 0 0 0 0 0 0 0 0 0 0 0 0 0 0 0 0 0 0 0 0 0 0 0 0 0 0 0 0
0 0 0 0 0 0 0 0 0 0 0 0 0 0 0 0 0 0 0 0 0 0 0 0 0 0 0 0 0 0 0 0 0 0 0 0 0 0 0 0 0 0 0 0
0 0 0 0 0 0 0 0 0 0 0 0 0 0 0 0 0 0 0 0 0 0 0 0 0 0 0 0 0 0 0 0 0 0 0 0 0 0 0 0 0 0 0 0
Wind_Speed
2 2 4 5 4 0 5 6 5 2 1 3 6 8 8 6 7 8 7 7 6 5 3 2 2 2 1 0 0 1 1 2 2 1 1 1 2 2 2 3 4 5 5 5
4 2 2 2 4 4 5 6 4 2 1 2 4 9 9 8 9 9 9 9 7 5 4 3 3 2 2 1 1 0 0 1 1 2 1 1 1 1 2 2 3 4 5 5
5 2 2 4 5 5 3 5 5 3 2 2 4 7 7 6 7 7 8 8 8 7 6 5 4 3 3 2 1 1 0 0 1 1 1 1 1 1 1 2 2 4 4 4
2 1 3 5 3 4 4 3 5 5 3 2 1 6 5 5 7 9 9 9 9 8 7 6 5 5 4 3 2 1 1 1 1 0 0 1 1 1 2 2 2 3 4 4
3 3 4 4 2 3 3 4 4 3 2 2 4 6 6 4 8 10 10 10 9 8 7 6 6 5 4 3 2 2 2 1 1 1 1 0 1 1 1 1 2 2 2 3
2 1 0 2 2 3 6 4 3 2 1 5 5 7 7 6 7 6 8 9 8 7 7 6 5 5 4 3 3 2 2 2 1 1 1 0 0 0 1 1 2 2 2 2
3 2 1 2 5 4 4 4 2 3 4 5 3 7 9 4 6 6 7 8 8 8 7 7 6 6 5 4 4 3 3 2 2 1 1 0 1 1 1 1 1 2 2 2
6 5 5 3 3 6 5 4 3 4 4 2 4 9 6 2 3 5 5 6 7 8 8 8 7 6 6 6 5 4 4 3 2 2 2 1 1 1 1 1 1 2 2 2
6 4 2 1 0 4 6 4 1 1 1 4 6 6 8 3 4 5 5 6 7 8 8 8 7 6 6 6 6 5 5 4 3 3 2 2 1 1 1 1 1 2 2 2
4 4 2 1 2 1 1 4 4 4 4 5 5 6 5 5 6 6 6 7 7 7 7 7 7 7 6 5 5 5 5 5 4 3 3 2 2 2 2 1 1 2 2 2
3 5 3 3 7 7 6 5 4 3 2 4 4 4 3 5 5 7 7 6 7 8 8 8 7 7 6 6 5 5 5 5 4 3 3 3 2 2 2 1 2 2 2 2
3 4 3 3 0 2 4 6 8 5 5 4 4 6 1 3 3 5 6 6 6 7 7 8 7 7 7 7 6 6 6 6 5 4 4 3 3 2 2 2 2 2 2 2
6 6 4 2 3 3 5 6 6 3 3 5 6 6 2 1 3 5 6 6 5 6 7 7 7 7 7 7 7 7 6 6 5 4 4 4 3 3 3 3 2 2 2 2
4 4 6 7 2 7 7 9 10 9 7 8 12 10 5 5 6 6 6 6 6 6 7 7 7 8 7 7 7 7 6 6 5 5 5 5 4 4 3 3 2 2 2 2
4 4 4 3 1 3 6 9 14 15 13 12 11 12 14 10 9 8 7 6 6 7 8 8 8 8 8 7 7 7 6 6 6 5 5 5 4 3 3 2 2 2 2 2
3 4 3 3 3 4 7 11 14 16 15 17 15 18 13 9 8 10 9 9 9 10 9 9 9 9 9 9 8 7 7 6 6 6 5 4 4 3 3 3 2 2 2 2
6 6 5 4 1 2 12 15 17 13 14 14 19 19 8 8 11 12 11 11 12 11 10 10 10 10 9 9 9 9 8 7 7 6 6 5 4 4 3 3 3 3 2 2
7 6 3 2 2 11 7 3 13 15 16 18 16 14 10 11 8 8 9 11 12 11 10 9 9 9 8 8 8 7 7 7 7 7 6 6 5 5 4 4 4 3 2 3
6 7 5 4 6 11 8 6 9 11 13 15 20 19 12 5 6 9 10 12 12 10 9 8 8 7 7 8 8 7 7 7 7 7 7 6 6 5 5 5 4 3 3 3
3 4 5 5 7 10 6 3 6 5 9 8 13 15 10 6 6 6 3 7 8 7 6 6 5 6 7 7 7 8 8 8 8 8 7 6 6 6 6 5 4 3 3 3
7 6 9 9 10 11 5 5 8 7 6 1 7 9 9 10 8 1 1 3 4 4 4 5 6 6 6 6 8 8 8 9 8 6 5 5 5 5 5 4 3 3 3 3
13 11 11 9 10 13 7 11 12 7 1 2 4 5 8 8 4 3 3 3 3 4 4 5 5 5 5 7 8 9 9 7 5 5 5 5 5 4 4 4 4 3 3 3
12 12 9 12 11 2 11 10 6 0 2 2 3 4 6 6 6 5 4 4 4 4 4 5 5 5 5 7 8 9 8 5 6 6 6 5 4 4 4 4 4 4 3 3
8 4 5 7 11 7 8 8 6 6 5 4 4 4 5 6 6 5 5 5 4 4 5 4 6 6 6 7 7 7 5 5 6 6 6 5 5 5 4 4 4 4 4 3
9 10 7 9 9 6 8 12 12 9 7 6 6 5 7 7 7 7 6 6 6 5 4 5 7 7 7 7 7 6 6 6 7 6 5 5 5 4 4 4 4 4 4 4
10 11 12 11 9 8 8 7 9 10 11 10 8 7 7 8 9 7 7 6 5 5 5 5 6 7 7 6 7 6 6 7 7 6 6 5 4 4 4 3 2 4 4 4
Wind_Direction
56 149 186 197 213 131 156 170 180 177 140 218 230 248 245 220 219 223 219 217 216 220 223 209 209 206 206 154 85 37 32 13 14 17 10 34 35 33 33 29 23 17 12 9
138 193 208 126 146 141 155 168 179 155 128 244 267 267 258 231 222 223 221 217 217 218 215 210 214 207 203 206 207 118 32 13 2 358 351 352 19 27 25 23 20 16 11 7
172 124 161 149 149 164 181 198 189 173 146 166 294 267 232 220 221 224 225 222 219 216 216 210 211 210 204 207 214 210 226 54 14 13 26 50 58 30 21 17 14 13 12 11
138 147 162 160 182 199 202 194 166 159 192 219 268 279 238 217 222 222 220 217 217 215 215 211 206 205 205 207 193 187 179 124 71 75 88 58 49 20 356 351 354 1 11 9
154 160 167 184 196 193 133 127 144 160 183 249 209 250 257 194 233 227 218 215 215 212 210 209 205 202 198 187 176 171 161 131 109 104 112 127 64 21 5 359 353 358 5 8
101 99 226 156 94 136 132 125 114 131 208 245 212 228 261 210 220 221 210 206 207 207 205 204 196 191 189 180 175 173 165 149 137 134 136 141 99 8 359 355 346 346 343 349
156 166 150 152 129 141 176 169 174 205 218 237 157 233 255 237 222 227 216 204 202 201 199 198 194 192 190 186 184 184 181 177 165 157 159 206 236 242 272 298 315 329 333 337
176 192 186 186 187 175 187 212 213 230 239 240 190 240 258 271 259 247 231 212 202 200 199 198 197 195 193 191 191 189 192 191 184 184 194 207 226 238 254 280 303 306 308 318
185 167 105 138 351 174 165 200 301 117 70 272 243 260 280 227 232 221 210 200 202 200 199 199 195 196 195 195 196 197 196 196 196 199 197 198 204 225 250 274 290 291 306 309
161 147 158 150 154 39 255 153 162 194 217 250 262 252 248 213 214 207 206 206 203 197 196 199 198 198 198 197 197 196 196 199 200 198 198 200 205 222 242 253 281 292 301 300
157 139 137 178 205 188 166 180 194 184 239 238 264 254 217 227 213 213 215 210 206 200 199 200 201 199 196 194 193 196 198 200 200 201 203 204 208 216 225 237 264 282 297 307
160 135 160 206 74 326 230 209 188 196 210 222 254 269 91 238 232 221 220 214 211 207 204 203 202 199 197 198 198 200 201 202 204 204 207 210 212 213 222 240 263 279 289 297
152 144 138 174 200 205 224 215 211 198 170 196 220 253 100 223 236 226 221 214 207 205 206 206 205 205 204 203 202 204 204 204 203 201 205 209 212 215 226 240 256 270 281 293
145 170 204 214 191 170 197 204 198 192 207 218 231 251 254 244 236 227 221 217 211 210 209 210 212 211 208 207 207 207 205 202 200 200 205 212 216 219 228 238 249 261 276 287
167 198 211 254 272 186 214 210 203 211 221 228 240 243 253 249 243 240 233 223 221 223 219 216 216 214 210 207 207 207 205 201 200 203 209 216 219 219 224 234 247 258 269 281
169 178 169 236 233 236 250 233 217 225 233 241 256 262 258 254 244 241 234 225 226 229 226 221 217 213 210 209 207 204 205 201 198 204 210 210 211 214 220 230 240 253 269 282
170 162 178 221 222 262 253 225 208 212 217 217 233 244 237 233 233 235 233 227 228 229 224 220 217 213 210 207 204 204 202 196 196 203 206 205 207 213 220 227 233 243 259 271
167 166 174 167 162 234 243 189 205 220 232 225 240 251 245 246 254 250 237 230 230 227 223 221 217 214 209 202 200 198 192 192 196 203 206 206 206 212 217 223 232 241 249 258
187 167 162 181 231 265 272 207 188 207 247 229 235 247 248 248 280 263 236 225 227 225 222 220 214 210 202 196 192 188 191 193 198 206 209 207 204 209 214 221 229 234 241 256
174 177 175 189 219 239 246 171 172 174 261 234 220 235 230 180 229 247 211 207 217 219 216 212 203 197 197 193 181 186 195 199 208 211 211 207 204 208 215 220 225 229 235 248
178 190 202 207 232 256 248 144 154 191 244 206 202 215 192 199 226 247 154 196 202 203 200 191 190 197 199 183 179 192 201 212 214 203 200 202 205 209 214 218 221 224 233 245
183 185 198 195 219 242 170 155 194 219 18 175 189 195 200 218 245 257 247 232 211 204 196 189 193 202 194 183 186 199 211 212 196 189 195 201 202 205 204 209 214 214 220 233
207 200 193 201 219 247 171 197 216 200 228 215 209 211 208 221 237 241 242 241 234 218 203 192 195 200 198 194 196 206 210 191 181 185 195 198 196 202 203 207 210 208 211 227
222 212 203 236 251 247 222 236 242 232 238 239 228 218 208 221 233 237 236 236 233 226 214 198 192 204 210 201 205 213 200 179 179 191 197 192 193 199 200 209 211 211 210 219
201 183 205 241 260 277 246 232 237 237 244 252 247 234 225 226 239 238 239 235 229 226 216 204 206 213 215 203 206 202 191 179 188 194 195 193 196 196 199 209 216 217 222 221
195 190 196 224 216 218 241 238 225 227 235 235 237 248 242 230 240 241 240 238 229 224 215 215 219 219 216 206 208 200 190 186 188 195 197 195 193 192 194 199 220 233 237 242